カタログに戻る

STARLINK-30611

運用中通信VLEO
NORAD 58108·PAYLOAD·🇺🇸 United States

打ち上げ Oct 21, 2023 から Vandenberg Space Force Base

Loading…

次のパス (今後24時間)

TLE

最新Source: CelesTrak SupGP

元期: Sep 14, 2026, 21:24 UTC

1 58108C 23161M   26257.89215278 -.00007521  00000+0 -22225-3 0  2578
2 58108  53.1588 349.7580 0001165  87.5857 328.0460 15.34389045    19

AllMySatでSTARLINK-30611をリアルタイム追跡

Download on the App Store